Probability
0 0 0 0 0 0 0 0 0 0 0 0 0 0 0 0 0 0 0 0 0 0 0 0 3 0 3 3 6 10 10 10 6 0 0 0 0 3
0 0 0 0 0 0 0 0 0 0 0 0 0 0 0 0 0 0 0 0 0 0 0 0 0 0 0 0 0 0 0 3 3 3 0 0 0 0
0 0 0 0 0 0 0 0 0 0 0 0 0 0 0 0 0 0 0 0 0 0 0 0 0 0 0 0 0 0 0 0 0 0 3 0 0 0
0 0 0 0 0 0 0 0 0 0 0 0 0 0 0 0 0 0 0 0 0 0 0 0 0 0 0 0 0 0 0 0 0 3 0 0 0 0
0 0 0 0 0 0 0 0 0 0 0 0 0 0 0 0 0 0 0 0 0 0 0 0 0 0 0 0 0 0 0 0 0 0 0 3 3 3
0 0 0 0 0 0 0 0 0 0 0 0 0 0 0 0 0 0 0 0 0 0 0 0 0 0 0 0 0 0 0 0 0 0 0 0 0 0
0 0 0 0 0 0 0 0 0 0 0 0 0 0 0 0 0 0 0 0 0 0 0 0 0 0 0 0 0 0 0 0 0 0 0 0 0 0
0 0 0 0 0 0 0 0 0 0 0 0 0 0 0 0 0 0 0 0 0 0 0 0 0 0 0 0 0 0 0 0 0 0 0 0 0 0
0 0 0 0 0 0 0 0 0 0 0 0 0 0 0 0 0 0 0 0 0 0 0 0 0 0 0 0 0 0 0 0 0 0 0 0 0 0
0 0 0 0 0 0 0 0 0 0 0 0 0 0 0 0 0 0 0 0 0 0 0 0 0 0 0 0 0 0 0 0 0 0 0 0 0 0
0 0 0 0 0 0 0 0 0 0 0 0 0 0 0 0 0 0 0 0 0 0 0 0 0 0 0 0 0 0 0 0 0 0 0 0 0 0
0 0 0 0 0 0 0 0 0 0 0 0 0 0 0 0 0 0 0 0 0 0 0 0 0 0 0 0 0 0 0 0 0 0 0 0 0 0
0 0 0 0 0 0 0 0 0 0 0 0 0 0 0 0 0 0 0 0 0 0 0 0 0 0 0 0 0 0 0 0 0 0 0 0 0 0
0 0 0 0 0 0 0 0 0 0 0 0 0 0 0 0 0 0 0 0 0 0 0 0 0 0 0 0 0 0 0 0 0 0 0 0 0 0
0 0 0 0 0 0 0 0 0 0 0 0 0 0 0 0 0 0 0 0 0 0 0 0 0 0 0 0 0 0 0 0 0 0 0 0 0 0
0 0 0 0 0 0 0 0 0 0 0 0 0 0 0 0 0 0 0 0 0 0 0 0 0 0 0 0 0 0 0 0 0 0 0 0 0 0
0 0 0 0 0 0 0 0 0 0 0 0 0 0 0 0 0 0 0 0 0 0 0 0 0 0 0 0 0 0 0 0 0 0 0 0 0 0
0 0 0 0 0 0 0 0 0 0 0 0 0 0 0 0 0 0 0 0 0 0 0 0 0 0 0 0 0 0 0 0 0 0 0 0 0 0
0 0 0 0 0 0 0 0 0 0 0 0 0 0 0 0 0 0 0 0 0 0 0 0 0 0 0 0 0 0 0 0 0 0 0 0 0 0
0 0 0 0 0 0 0 0 0 0 0 0 0 0 0 0 0 0 0 0 0 0 0 0 0 0 0 0 0 0 0 0 0 0 0 0 0 0
0 0 0 0 0 0 0 0 0 0 0 0 0 0 0 0 0 0 0 0 0 0 0 0 0 0 0 0 0 0 0 0 0 0 0 0 0 0
0 0 0 0 0 0 0 0 0 0 0 0 0 0 0 0 0 0 0 0 0 0 0 0 0 0 0 0 0 0 0 0 0 0 0 0 0 0
0 0 0 0 0 0 0 0 0 0 0 0 0 0 0 0 0 0 0 0 0 0 0 0 0 0 0 0 0 0 0 0 0 0 0 0 0 0
Height
5809 5808 5808 5808 5808 5808 5808 5809 5809 5809 5809 5809 5809 5809 5809 5809 5809 5809 5809 5809 5809 5809 5809 5808 5808 5807 5807 5806 5805 5804 5803 5803 5803 5802 5802 5802 5802 5802
5806 5806 5806 5805 5805 5805 5805 5805 5806 5806 5806 5806 5806 5806 5806 5806 5806 5806 5806 5806 5806 5805 5805 5805 5804 5804 5803 5802 5801 5801 5800 5799 5799 5798 5797 5797 5797 5797
5803 5803 5802 5802 5802 5802 5802 5802 5803 5803 5803 5803 5803 5803 5803 5803 5803 5802 5802 5802 5802 5801 5801 5801 5800 5799 5799 5798 5797 5796 5795 5794 5794 5793 5793 5792 5792 5791
5799 5799 5799 5798 5799 5799 5799 5799 5799 5799 5800 5800 5800 5800 5799 5799 5799 5799 5798 5798 5798 5797 5797 5796 5796 5795 5794 5793 5792 5791 5790 5789 5788 5788 5787 5787 5786 5785
5795 5795 5795 5795 5795 5795 5796 5796 5796 5796 5796 5797 5796 5796 5796 5795 5795 5795 5794 5794 5793 5793 5792 5792 5791 5790 5789 5788 5787 5786 5785 5784 5783 5782 5782 5781 5780 5779
5791 5791 5791 5791 5791 5792 5792 5792 5792 5792 5792 5793 5792 5792 5792 5791 5791 5790 5790 5789 5789 5788 5787 5787 5786 5785 5784 5783 5782 5780 5779 5778 5777 5776 5775 5774 5774 5773
5787 5787 5787 5787 5787 5788 5788 5788 5788 5788 5788 5788 5788 5788 5788 5787 5786 5786 5785 5784 5784 5783 5782 5781 5780 5779 5778 5777 5775 5774 5773 5771 5770 5769 5768 5768 5767 5766
5782 5782 5782 5782 5782 5783 5783 5783 5784 5784 5783 5783 5783 5783 5782 5782 5781 5781 5780 5780 5779 5778 5777 5776 5775 5773 5772 5770 5769 5767 5766 5765 5763 5762 5761 5761 5760 5759
5776 5777 5777 5777 5777 5777 5778 5778 5778 5778 5778 5778 5778 5777 5777 5777 5776 5775 5774 5773 5773 5772 5771 5770 5768 5767 5765 5764 5762 5761 5760 5758 5757 5756 5755 5753 5752 5751
5771 5771 5771 5771 5771 5772 5772 5772 5772 5772 5772 5772 5772 5771 5771 5770 5770 5769 5768 5767 5766 5765 5764 5763 5762 5760 5758 5757 5755 5754 5753 5751 5750 5748 5747 5746 5744 5743
5764 5765 5765 5765 5765 5766 5766 5766 5766 5766 5765 5765 5765 5764 5764 5763 5763 5762 5761 5760 5759 5758 5757 5756 5755 5753 5751 5750 5748 5746 5745 5743 5742 5740 5739 5737 5735 5734
5758 5758 5758 5758 5758 5758 5759 5759 5759 5759 5759 5758 5758 5757 5756 5756 5755 5755 5754 5753 5752 5751 5749 5748 5747 5745 5744 5742 5740 5738 5736 5735 5733 5731 5729 5727 5726 5724
5750 5750 5751 5751 5751 5751 5751 5752 5752 5751 5751 5750 5750 5749 5749 5748 5747 5746 5746 5745 5744 5743 5741 5739 5738 5736 5735 5734 5732 5729 5727 5725 5723 5721 5719 5718 5716 5715
5742 5742 5743 5743 5743 5743 5743 5743 5743 5743 5742 5742 5742 5741 5740 5740 5739 5738 5737 5736 5735 5734 5732 5730 5729 5727 5726 5724 5722 5720 5718 5715 5714 5712 5709 5707 5706 5704
5733 5733 5734 5734 5734 5734 5734 5734 5734 5734 5733 5733 5733 5732 5731 5730 5729 5728 5727 5726 5725 5723 5722 5720 5719 5717 5715 5714 5712 5710 5708 5706 5703 5702 5700 5698 5696 5694
5723 5724 5724 5725 5725 5725 5725 5724 5724 5724 5724 5723 5723 5722 5721 5720 5719 5718 5716 5715 5714 5713 5711 5710 5708 5706 5705 5703 5701 5699 5697 5696 5694 5692 5690 5688 5686 5684
5713 5714 5714 5715 5715 5714 5714 5714 5714 5713 5713 5713 5712 5711 5711 5710 5708 5707 5706 5704 5703 5702 5700 5698 5696 5695 5693 5692 5691 5689 5687 5685 5684 5682 5680 5679 5676 5674
5702 5703 5703 5704 5704 5704 5704 5703 5703 5703 5702 5702 5701 5700 5699 5698 5697 5695 5694 5692 5691 5690 5688 5687 5685 5684 5683 5682 5680 5679 5677 5675 5674 5672 5670 5668 5666 5664
5690 5691 5691 5692 5692 5692 5692 5691 5691 5691 5690 5690 5689 5688 5687 5686 5685 5683 5681 5680 5678 5677 5676 5674 5673 5672 5672 5672 5670 5668 5666 5665 5663 5662 5660 5658 5656 5654
5678 5678 5679 5679 5679 5679 5679 5679 5679 5678 5677 5677 5676 5675 5675 5674 5672 5671 5669 5667 5666 5665 5664 5663 5662 5662 5661 5661 5659 5658 5656 5654 5653 5651 5649 5647 5645 5644
5666 5666 5666 5666 5666 5665 5665 5665 5665 5665 5664 5664 5663 5663 5662 5661 5660 5659 5657 5655 5654 5653 5653 5653 5652 5650 5649 5649 5648 5648 5646 5644 5642 5641 5639 5637 5635 5633
5653 5653 5653 5652 5652 5651 5651 5651 5651 5651 5651 5651 5650 5650 5649 5648 5647 5647 5645 5644 5643 5643 5642 5642 5640 5639 5638 5638 5637 5637 5635 5633 5631 5630 5628 5627 5625 5623
5640 5640 5639 5638 5638 5637 5637 5637 5637 5637 5637 5637 5637 5636 5636 5636 5635 5634 5634 5633 5633 5632 5631 5630 5629 5628 5628 5627 5626 5625 5624 5622 5621 5619 5618 5616 5614 5612
Wind_Speed
10 10 9 9 9 10 11 11 11 11 11 12 12 12 11 11 11 11 11 12 13 13 13 13 13 13 13 14 15 15 16 16 16 16 17 17 17 17
11 11 10 10 11 11 11 11 11 11 11 11 11 12 12 12 12 12 13 13 13 13 14 14 14 14 14 15 15 15 16 16 17 18 19 19 19 19
13 12 12 12 12 11 11 11 11 11 12 12 12 12 13 13 13 13 13 14 14 14 15 15 15 15 16 16 17 17 18 18 19 19 20 20 20 20
14 13 13 13 13 13 13 12 12 12 12 12 12 13 13 14 14 15 15 14 15 15 16 16 16 17 17 18 18 18 19 19 20 20 21 21 21 21
14 14 13 13 13 13 13 14 13 13 13 13 13 14 14 14 15 15 16 16 16 17 17 17 18 18 19 19 19 19 19 20 21 21 21 21 21 21
16 15 15 15 14 14 14 14 14 14 15 15 15 15 15 15 16 16 16 17 17 18 18 19 19 20 20 20 21 21 21 22 22 22 22 22 22 22
17 17 16 16 16 16 16 16 16 16 16 17 17 17 17 17 17 17 18 18 18 19 19 20 20 21 21 21 22 23 23 24 24 24 23 24 24 24
17 17 17 18 17 18 18 18 18 18 18 19 19 19 18 18 18 19 18 19 19 19 20 20 21 22 23 23 23 23 23 24 24 24 24 24 25 26
18 18 18 18 18 18 19 20 20 20 20 20 20 20 20 20 20 20 20 20 20 21 21 22 23 23 24 23 23 23 23 23 24 25 25 26 26 27
18 18 19 19 19 20 21 21 21 21 21 21 21 22 22 22 22 22 22 22 22 22 23 23 24 24 24 24 24 24 25 25 26 26 27 27 26 26
21 21 21 21 22 22 22 21 22 22 23 23 23 24 24 24 24 24 24 24 24 24 25 25 25 25 25 25 26 26 26 26 27 27 28 28 28 28
24 24 24 23 23 23 23 23 23 23 24 24 25 25 25 25 25 26 26 26 26 26 27 27 27 28 28 28 28 28 28 28 28 28 29 30 30 30
25 25 25 25 25 26 26 26 25 26 26 26 27 27 27 26 27 27 28 28 28 28 28 29 28 29 29 29 29 29 30 30 30 30 30 30 30 31
26 25 26 26 27 27 28 28 28 28 29 29 29 29 29 29 29 29 30 29 29 30 30 31 30 30 30 30 30 30 31 31 31 30 30 30 30 31
28 28 28 28 28 29 29 30 30 30 31 31 31 30 31 32 32 32 32 32 32 32 33 33 32 32 33 32 32 32 32 31 30 30 30 30 31 31
30 30 30 30 31 31 31 31 32 32 33 33 33 33 33 33 33 34 35 35 35 35 35 35 34 34 34 33 32 31 31 31 31 31 30 31 31 31
33 33 33 33 33 33 33 34 34 34 34 34 35 35 35 35 35 35 36 36 36 36 36 36 35 34 34 33 32 32 31 31 32 32 32 32 32 32
35 35 35 35 35 35 35 35 36 36 36 36 36 36 36 36 36 36 37 37 37 37 36 36 34 33 32 32 33 33 33 33 33 33 33 32 32 33
36 37 37 37 37 37 38 38 38 38 38 37 37 37 37 37 36 36 37 38 38 37 36 35 34 33 33 32 33 33 33 33 33 33 33 33 33 33
37 37 37 38 38 39 39 39 39 39 39 39 38 37 37 37 37 37 37 37 37 36 35 34 34 34 33 33 33 33 33 33 33 33 34 34 34 34
37 38 39 39 40 40 40 40 39 39 39 38 38 38 38 37 36 36 37 36 35 33 33 33 33 34 34 34 34 33 33 33 34 34 34 34 34 34
39 39 40 41 41 41 41 40 40 39 39 39 39 38 38 37 36 36 36 35 33 33 33 32 33 33 33 33 34 34 34 34 34 34 34 34 34 33
41 41 41 41 41 41 41 41 40 40 40 40 39 39 38 37 37 36 35 34 34 33 34 34 33 33 33 33 34 34 34 34 34 35 34 34 34 34
Wind_Direction
279 281 280 276 272 269 267 267 266 267 271 273 272 271 272 275 277 276 279 281 282 282 280 282 284 286 287 286 285 286 281 280 281 280 277 274 274 277
276 277 275 272 272 271 269 267 266 268 271 274 274 275 275 277 279 280 281 281 281 281 281 281 283 286 288 289 289 287 284 282 282 280 276 275 276 278
273 274 273 270 268 270 273 273 268 270 270 273 274 276 277 278 280 281 282 283 284 283 282 283 284 287 289 289 288 285 283 281 282 282 278 277 279 278
273 272 272 269 268 269 271 272 269 270 270 271 275 277 278 279 281 280 281 283 284 284 285 286 286 289 291 290 289 288 286 284 284 283 282 280 280 280
271 270 270 270 270 269 269 269 268 269 270 271 274 279 281 283 283 282 281 282 283 283 285 286 286 288 289 290 288 289 288 286 285 284 283 283 281 281
269 268 268 268 267 267 268 268 268 269 270 273 274 278 282 283 283 284 282 283 282 283 285 286 286 287 288 289 288 287 286 285 285 284 283 283 282 281
268 267 267 267 266 266 267 267 268 270 271 273 275 278 280 281 282 283 282 281 281 283 286 286 286 287 288 289 288 286 286 286 285 283 283 284 284 282
267 268 268 267 267 265 266 267 269 271 272 273 275 278 279 280 280 280 281 282 282 283 285 287 288 288 289 289 288 288 288 287 285 285 285 285 286 284
266 268 268 268 268 267 267 268 270 272 273 273 274 276 278 279 279 281 282 282 282 282 283 286 288 290 289 288 287 287 286 285 284 285 286 285 285 284
266 267 267 268 268 268 268 268 269 271 272 273 274 276 278 278 279 281 283 282 283 283 283 285 287 288 287 287 286 285 285 285 286 286 287 286 285 285
267 267 267 267 267 269 269 268 269 270 271 273 275 278 279 278 279 281 281 282 283 283 284 284 285 284 285 287 287 287 285 285 285 285 285 285 284 285
264 265 266 267 267 267 268 269 269 271 273 275 276 278 280 280 280 280 281 280 281 282 282 283 283 283 283 285 286 286 285 284 284 284 284 285 285 285
264 264 266 268 269 270 270 270 270 271 273 276 277 278 278 279 280 280 281 280 280 280 281 282 283 284 284 284 284 285 285 284 284 285 286 286 286 286
263 264 265 267 268 269 270 270 270 271 273 274 276 277 278 279 279 279 280 279 279 279 280 282 283 284 284 285 285 286 287 286 286 285 284 285 286 286
265 266 266 268 270 270 270 270 270 270 272 274 276 277 277 277 277 278 279 279 280 280 281 282 282 283 284 284 285 286 286 285 285 286 286 286 287 287
266 266 268 268 270 271 271 271 271 271 273 274 275 276 277 277 277 278 279 279 280 281 281 281 282 283 284 284 284 284 284 285 286 287 287 287 287 287
265 265 267 268 269 270 270 272 273 273 274 275 276 276 276 277 278 279 279 279 279 280 281 282 281 281 281 282 283 284 284 284 285 286 287 288 288 287
265 265 267 267 268 269 270 271 272 273 274 275 276 276 277 277 279 279 279 279 279 280 281 281 280 279 278 279 281 282 283 284 285 285 286 287 287 287
265 266 268 268 268 269 271 272 272 273 273 274 275 276 276 277 278 279 279 279 280 280 279 279 278 278 278 279 281 282 283 284 285 285 286 287 287 287
267 267 267 268 270 270 270 272 273 273 273 273 274 274 275 277 278 278 280 280 280 278 277 277 277 278 278 278 279 280 283 284 285 285 286 287 287 287
269 269 269 269 270 270 271 271 271 272 272 273 273 274 276 277 278 279 279 280 279 277 277 277 277 277 277 278 279 280 282 284 284 285 286 286 286 287
271 271 271 272 271 270 271 270 270 270 271 272 272 273 274 275 276 277 278 278 277 277 278 278 279 279 280 281 281 281 282 284 284 285 286 286 287 288
271 272 273 273 272 270 270 270 269 270 270 270 271 272 272 273 275 275 275 275 275 277 278 278 279 280 281 281 281 282 283 283 283 284 285 285 286 287